Wahoo, NE

3:03 AM CDT on July 22, 2017 (GMT -0500)
Wahoo Municipal

Weather History for KAHQ - July, 2014

Change the Weather History Date:

Sunday, July 27, 2014

  Actual Average Record
Temperature  
Mean Temperature 72 °F -  
Max Temperature 81 °F 86 °F 99 °F (1983)
Min Temperature 63 °F 64 °F 47 °F (1980)
Cooling Degree Days 7    
Growing Degree Days 22 (Base 50)    
Moisture  
Dew Point 60 °F    
Average Humidity 66    
Maximum Humidity 91    
Minimum Humidity 42    
Precipitation  
Precipitation 0.00 in - - ()
Sea Level Pressure  
Sea Level Pressure 30.08 in    
Wind  
Wind Speed 8 mph (NNW)    
Max Wind Speed 20 mph    
Max Gust Speed 26 mph    
Visibility 9 miles    
Events      
Averages and records for this station are not official NWS values.
T = Trace of Precipitation, MM = Missing Value Source: NWS Daily Summary

Daily Weather History Graph

Daily Weather History Graph

Search for Another Location

Airport or City:

Trip Planner

Search our weather history database for the weather conditions in past years. The results will help you decide how hot, cold, wet, or windy it might be!

Date:

Astronomy

Jul. 27, 2014 Rise Set
Actual Time 6:16 AM CDT 8:48 PM CDT
Civil Twilight 5:45 AM CDT 9:19 PM CDT
Nautical Twilight 5:06 AM CDT 9:58 PM CDT
Astronomical Twilight 4:21 AM CDT 10:42 PM CDT
Moon 7:05 AM CDT (7/27) 8:56 PM CDT (7/27)
Length of Visible Light 15h 34m
Length of Day
14h 31m
New Moon, 1% of the Moon is Illuminated
Jul 27
New Moon
Aug 3
First Quarter
Aug 10
Full
Aug 17
Last Quarter
Aug 25
New

Hourly Weather History & Observations

Time (CDT) Temp. Heat Index Dew Point Humidity Pressure Visibility Wind Dir Wind Speed Gust Speed Precip Events Conditions
12:15 AM 74.8 °F - 71.2 °F 88% 29.96 in 7.0 mi NNW 5.8 mph - N/A   Clear
12:35 AM 74.5 °F - 70.9 °F 88% 29.96 in 7.0 mi NNW 5.8 mph - N/A   Clear
12:55 AM 74.3 °F - 70.7 °F 88% 29.97 in 7.0 mi NNW 5.8 mph - N/A   Clear
1:15 AM 73.6 °F - 70.0 °F 88% 29.97 in 7.0 mi NNW 5.8 mph - N/A   Clear
1:35 AM 73.4 °F - 69.8 °F 88% 29.97 in 7.0 mi NNW 4.6 mph - N/A   Clear
1:55 AM 72.7 °F - 69.3 °F 89% 29.97 in 7.0 mi NNW 4.6 mph - N/A   Clear
2:15 AM 71.8 °F - 68.7 °F 90% 29.97 in 5.0 mi NW 4.6 mph - N/A   Clear
2:35 AM 71.8 °F - 68.9 °F 91% 29.98 in 5.0 mi NW 5.8 mph - N/A   Clear
2:55 AM 71.8 °F - 68.5 °F 89% 29.99 in 7.0 mi NW 5.8 mph - N/A   Clear
3:15 AM 71.6 °F - 68.2 °F 89% 29.98 in 7.0 mi NNW 4.6 mph - N/A   Clear
3:35 AM 70.9 °F - 67.5 °F 89% 29.98 in 7.0 mi NW 4.6 mph - N/A   Clear
3:55 AM 70.7 °F - 67.3 °F 89% 29.99 in 7.0 mi NNW 5.8 mph - N/A   Clear
4:15 AM 70.7 °F - 66.6 °F 87% 30.00 in 10.0 mi NW 8.1 mph - N/A   Clear
4:35 AM 70.0 °F - 65.1 °F 85% 30.00 in 10.0 mi NW 9.2 mph - N/A   Clear
4:55 AM 68.9 °F - 62.8 °F 81% 30.01 in 10.0 mi NNW 9.2 mph - N/A   Clear
5:15 AM 67.6 °F - 62.1 °F 82% 30.02 in 10.0 mi NNW 6.9 mph - N/A   Clear
5:35 AM 66.7 °F - 61.0 °F 82% 30.02 in 10.0 mi NNW 5.8 mph - N/A   Clear
5:55 AM 65.7 °F - 59.9 °F 82% 30.04 in 10.0 mi NW 6.9 mph - N/A   Clear
6:15 AM 64.4 °F - 59.2 °F 83% 30.04 in 10.0 mi NW 5.8 mph - N/A   Clear
6:35 AM 63.7 °F - 59.0 °F 85% 30.04 in 10.0 mi NW 5.8 mph - N/A   Clear
6:55 AM 64.2 °F - 58.3 °F 81% 30.04 in 10.0 mi NW 5.8 mph - N/A   Clear
7:15 AM 64.8 °F - 58.5 °F 80% 30.05 in 10.0 mi NNW 4.6 mph - N/A   Clear
7:35 AM 66.0 °F - 59.2 °F 79% 30.06 in 10.0 mi NNW 3.5 mph - N/A   Clear
7:55 AM 67.3 °F - 59.9 °F 77% 30.07 in 10.0 mi NNW 4.6 mph - N/A   Clear
8:15 AM 69.1 °F - 59.7 °F 72% 30.08 in 10.0 mi NW 5.8 mph - N/A   Clear
8:35 AM 71.1 °F - 59.5 °F 67% 30.08 in 10.0 mi NW 6.9 mph - N/A   Clear
8:55 AM 72.5 °F - 58.5 °F 61% 30.09 in 10.0 mi NNW 9.2 mph - N/A   Clear
9:15 AM 73.0 °F - 57.4 °F 58% 30.10 in 10.0 mi NNW 9.2 mph 16.1 mph N/A   Clear
9:35 AM 73.9 °F - 56.3 °F 54% 30.11 in 10.0 mi NNW 9.2 mph 16.1 mph N/A   Clear
9:55 AM 75.2 °F - 57.4 °F 54% 30.11 in 10.0 mi NW 12.7 mph 16.1 mph N/A   Clear
10:15 AM 76.1 °F - 57.7 °F 53% 30.11 in 10.0 mi NW 11.5 mph 17.3 mph N/A   Clear
10:35 AM 76.1 °F - 57.2 °F 52% 30.11 in 10.0 mi NNW 13.8 mph 18.4 mph N/A   Clear
10:55 AM 77.2 °F - 57.4 °F 50% 30.12 in 10.0 mi NW 11.5 mph 21.9 mph N/A   Clear
12:15 PM 79.0 °F - 57.0 °F 47% 30.12 in 10.0 mi NNW 16.1 mph 25.3 mph N/A   Clear
12:35 PM 79.0 °F - 58.3 °F 49% 30.12 in 10.0 mi NNW 13.8 mph 24.2 mph N/A   Clear
12:55 PM 79.9 °F - 59.4 °F 49% 30.12 in 10.0 mi NW 15.0 mph 23.0 mph N/A   Clear
1:15 PM 79.5 °F - 57.9 °F 47% 30.12 in 10.0 mi NNW 16.1 mph 25.3 mph N/A   Clear
1:35 PM 79.7 °F - 57.7 °F 47% 30.11 in 10.0 mi NW 19.6 mph 26.5 mph N/A   Scattered Clouds
1:55 PM 79.9 °F - 56.8 °F 45% 30.11 in 10.0 mi NNW 15.0 mph 25.3 mph N/A   Clear
2:15 PM 80.4 °F 80.8 °F 58.1 °F 46% 30.12 in 10.0 mi North - - N/A   Scattered Clouds
2:35 PM 80.6 °F 80.7 °F 57.0 °F 44% 30.12 in 10.0 mi NNW 15.0 mph 21.9 mph N/A   Scattered Clouds
2:55 PM 80.8 °F 80.9 °F 57.0 °F 44% 30.12 in 10.0 mi NNW 16.1 mph 24.2 mph N/A   Scattered Clouds
3:15 PM 80.8 °F 80.9 °F 56.8 °F 44% 30.12 in 10.0 mi NNW 17.3 mph 25.3 mph N/A   Scattered Clouds
3:35 PM 81.0 °F 81.0 °F 57.4 °F 44% 30.12 in 10.0 mi NW 17.3 mph 23.0 mph N/A   Scattered Clouds
3:55 PM 81.1 °F 81.2 °F 57.2 °F 44% 30.12 in 10.0 mi NNW 16.1 mph 25.3 mph N/A   Scattered Clouds
4:15 PM 80.8 °F 80.9 °F 57.0 °F 44% 30.12 in 10.0 mi NNW 13.8 mph 21.9 mph N/A   Scattered Clouds
4:35 PM 80.6 °F 80.7 °F 56.7 °F 44% 30.12 in 10.0 mi NNW 13.8 mph 25.3 mph N/A   Scattered Clouds
4:55 PM 80.8 °F 80.7 °F 55.4 °F 42% 30.12 in 10.0 mi NNW 15.0 mph 21.9 mph N/A   Clear
5:15 PM 81.0 °F 81.0 °F 57.0 °F 44% 30.12 in 10.0 mi NNW 13.8 mph 21.9 mph N/A   Scattered Clouds
5:35 PM 80.2 °F 80.3 °F 55.2 °F 42% 30.12 in 10.0 mi NNW 12.7 mph 23.0 mph N/A   Scattered Clouds
5:55 PM 80.1 °F 80.2 °F 55.9 °F 43% 30.12 in 10.0 mi North 10.4 mph 19.6 mph N/A   Scattered Clouds
6:15 PM 79.7 °F - 55.6 °F 43% 30.12 in 10.0 mi NNW 10.4 mph 20.7 mph N/A   Clear
6:35 PM 79.2 °F - 55.9 °F 45% 30.13 in 10.0 mi NNW 9.2 mph 17.3 mph N/A   Clear
6:55 PM 78.3 °F - 55.9 °F 46% 30.13 in 10.0 mi NNW 11.5 mph - N/A   Scattered Clouds
7:15 PM 77.5 °F - 56.1 °F 47% 30.13 in 10.0 mi NNW 8.1 mph 16.1 mph N/A   Clear
7:35 PM 76.3 °F - 57.4 °F 52% 30.13 in 10.0 mi North 8.1 mph - N/A   Clear
7:55 PM 74.7 °F - 58.5 °F 57% 30.13 in 10.0 mi North 5.8 mph - N/A   Clear
8:15 PM 72.9 °F - 59.2 °F 62% 30.13 in 10.0 mi North 4.6 mph - N/A   Clear
8:35 PM 70.7 °F - 59.5 °F 68% 30.14 in 10.0 mi North 4.6 mph - N/A   Clear
8:55 PM 68.2 °F - 59.9 °F 75% 30.14 in 10.0 mi NNW 5.8 mph - N/A   Clear
9:15 PM 67.1 °F - 59.7 °F 77% 30.15 in 10.0 mi NW 4.6 mph - N/A   Clear
9:35 PM 66.6 °F - 59.7 °F 79% 30.16 in 10.0 mi NNW 4.6 mph - N/A   Clear
9:55 PM 66.0 °F - 59.7 °F 80% 30.17 in 10.0 mi NNW 4.6 mph - N/A   Clear
10:15 PM 65.3 °F - 59.5 °F 82% 30.18 in 10.0 mi NW 4.6 mph - N/A   Clear
10:35 PM 65.3 °F - 59.5 °F 82% 30.19 in 10.0 mi NNW 5.8 mph - N/A   Clear
10:55 PM 65.7 °F - 58.5 °F 78% 30.19 in 10.0 mi NNW 5.8 mph - N/A   Clear
11:15 PM 64.8 °F - 58.6 °F 81% 30.20 in 10.0 mi NNW 4.6 mph - N/A   Clear
11:55 PM 63.3 °F - 58.1 °F 83% 30.21 in 10.0 mi North 6.9 mph - N/A   Clear